EHI
0 0 0 0 0 0 0 0 0 0 0 0 0 0 0 0 0 0 0 0 0 0 0 0 0 0 0 0 0 0 0 0 0 0 0 0 0 0
0 0 0 0 0 0 0 0 0 0 0 0 0 0 0 0 0 0 0 0 0 0 0 0 0 0 0 0 0 0 0 0 0 0 0 0 0 0
0 0 0 0 0 0 0 0 0 0 0 0 0 0 0 0 0 0 0 0 0 0 0 0 0 0 0 0 0 0 0 0 0 0 0 0 0 0
0 0 0 0 0 0 0 0 0 0 0 0 0 0 0 0 0 0 0 0 0 0 0 0 0 0 0 0 0 0 0 0 0 0 0 0 0 0
0 0 0 0 0 0 0 0 0 0 0 0 0 0 0 0 0 0 0 0 0 0 0 0 0 0 0 0 0 0 0 0 0 0 0 0 0 0
0 0 0 0 0 0 0 0 0 0 0 0 0 0 0 0 0 0 0 0 0 0 0 0 0 0 0 0 0 0 0 0 0 0 0 0 0 0
0 0 0 0 0 0 0 0 0 0 0 0 0 0 0 0 0 0 0 0 0 0 0 0 0 0 0 0 0 0 0 0 0 0 0 0 0 0
0 0 0 0 0 0 0 0 0 0 0 0 0 0 0 0 0 0 0 0 0 0 0 0 0 0 0 0 0 0 0 0 0 0 0 0 0 0
0 0 0 0 0 0 0 0 0 0 0 0 0 0 0 0 0 0 0 0 0 0 0 0 0 0 0 0 0 0 0 0 0 0 0 0 0 0
0 0 0 0 0 0 0 0 0 0 0 0 0 0 0 0 0 0 0 0 0 0 0 0 0 0 0 0 0 0 0 0 0 0 0 0 0 0
0 0 0 0 0 0 0 0 0 0 0 0 0 0 0 0 0 0 0 0 0 0 0 0 0 0 0 0 0 0 0 0 0 0 0 0 0 0
0 0 0 0 0 0 0 0 0 0 0 0 0 0 0 0 0 0 0 0 0 0 0 0 0 0 0 0 0 0 0 0 0 0 0 0 0 0
0 0 0 0 0 0 0 0 0 0 0 0 0 0 0 0 0 0 0 0 0 0 0 0 0 0 0 0 0 0 0 0 0 0 0 0 0 0
0 0 0 0 0 0 0 0 0 0 0 0 0 0 0 0 0 0 0 0 0 0 0 0 0 0 0 0 0 0 0 0 0 0 0 0 0 0
0 0 0 0 0 0 0 0 0 0 0 0 0 0 0 0 0 0 0 0 0 0 0 0 0 0 0 0 0 0 0 0 0 0 0 0 0 0
0 0 0 0 0 0 0 0 0 0 0 0 0 0 0 0 0 0 0 0 0 0 0 0 0 0 0 0 0 0 0 0 0 0 0 0 0 0
0 0 0 0 0 0 0 0 0 0 0 0 0 0 0 0 0 0 0 0 0 0 0 0 0 0 0 0 0 0 0 0 0 0 0 0 0 0
0 0 0 0 0 0 0 0 0 0 0 0 0 0 0 0 0 0 0 0 0 0 0 0 0 0 0 0 0 0 0 0 0 0 0 0 0 0
0 0 0 0 0 0 0 0 0 0 0 0 0 0 0 0 0 0 0 0 0 0 0 0 0 0 0 0 0 0 0 0 0 0 0 0 0 0
0 0 0 0 0 0 0 0 0 0 0 0 0 0 0 0 0 0 0 0 0 0 0 0 0 0 0 0 0 0 0 0 0 0 0 0 0 0
0 0 0 0 0 0 0 0 0 0 0 0 0 0 0 0 0 0 0 0 0 0 0 0 0 0 0 0 0 0 0 0 0 0 0 0 0 0
0 0 0 0 0 0 0 0 0 0 0 0 0 0 0 0 0 0 0 0 0 0 0 0 0 0 0 0 0 0 0 0 0 0 0 0 0 0
0 0 0 0 0 0 0 0 0 0 0 0 0 0 0 0 0 0 0 0 0 0 0 0 0 0 0 0 0 0 0 0 0 0 0 0 0 0
Wind_Speed
1 1 1 1 1 0 1 2 2 0 2 2 1 1 1 1 1 1 1 3 4 5 5 6 5 6 7 7 8 8 9 9 9 10 11 12 12 13
1 1 1 1 1 0 0 1 2 2 1 2 2 1 1 1 2 2 2 3 4 4 5 5 5 6 6 7 7 8 8 8 8 9 9 10 10 10
2 1 2 1 1 1 0 0 1 2 2 2 1 1 0 1 1 1 1 2 2 4 5 5 5 5 5 6 7 7 7 7 8 8 9 9 8 8
2 1 2 1 1 1 0 0 1 1 2 2 1 1 1 1 1 2 1 2 2 3 5 5 5 5 5 6 6 7 7 7 7 7 8 8 8 8
3 2 3 1 1 1 1 1 1 1 1 2 2 1 1 1 0 1 0 0 1 2 4 4 5 6 6 6 6 6 6 6 6 7 7 7 7 7
3 3 3 3 3 3 2 2 2 1 1 1 2 2 1 1 1 1 1 1 1 1 1 2 3 4 5 6 7 7 7 7 7 7 7 6 6 6
3 3 4 4 5 4 2 3 2 2 1 2 2 2 2 1 2 2 2 1 1 0 0 1 1 1 2 4 6 7 7 7 7 7 6 6 6 6
3 4 4 4 5 6 5 5 4 3 3 3 3 3 4 3 2 2 2 1 2 1 2 1 1 2 2 2 5 7 8 8 8 7 7 7 6 6
3 3 3 3 4 3 5 6 6 7 6 5 4 5 4 5 4 3 3 3 3 2 2 2 1 2 2 2 6 7 8 8 8 8 7 7 7 6
3 3 3 5 4 4 4 4 5 5 6 5 5 6 5 5 5 5 4 3 1 1 3 2 2 2 1 1 4 6 7 8 8 7 7 7 6 6
4 4 4 4 8 6 3 5 6 6 7 8 8 8 8 8 6 3 3 3 2 2 3 3 2 1 1 1 2 5 6 7 7 7 7 6 6 5
5 5 6 7 10 8 4 4 6 7 5 5 5 7 6 7 8 6 5 4 3 3 3 4 3 3 1 1 1 2 3 5 7 7 7 7 7 4
4 4 5 11 13 12 7 5 8 7 5 5 4 4 4 4 4 5 5 5 5 4 4 5 3 3 3 2 1 2 3 2 3 3 5 6 7 6
4 4 6 13 14 14 9 8 10 7 3 3 3 4 4 5 5 5 6 6 6 6 6 6 4 5 4 3 3 2 2 2 3 3 3 4 5 5
4 9 11 13 12 9 10 11 7 3 3 4 5 5 5 5 4 3 4 4 4 4 4 5 5 4 4 5 4 3 3 3 4 4 3 3 3 3
5 8 11 10 7 8 9 6 4 3 4 5 5 4 3 3 4 4 4 4 3 4 3 5 6 6 5 4 4 4 4 5 4 5 4 3 2 3
5 4 3 4 4 5 5 4 4 3 4 4 4 4 4 4 4 4 4 4 5 5 4 2 3 3 5 5 4 5 4 4 4 5 5 3 3 4
5 3 4 4 4 5 5 5 4 4 4 4 5 5 5 5 5 4 4 5 6 6 6 4 4 2 1 1 3 5 5 4 4 4 4 4 4 3
3 4 4 5 5 5 5 5 5 5 4 4 5 5 5 5 5 6 6 6 6 6 5 5 5 6 6 6 4 5 6 5 4 4 4 4 5 4
3 4 5 5 5 5 5 5 5 5 5 4 4 5 5 5 6 6 7 7 6 6 5 5 6 8 9 8 5 3 6 6 6 6 4 2 1 2
5 5 5 5 5 5 6 5 5 5 6 5 5 5 5 5 6 7 7 9 8 6 8 8 8 8 3 3 3 2 2 5 7 6 6 5 3 2
5 6 6 6 6 6 6 6 5 5 6 6 6 5 5 5 6 7 7 7 7 7 8 5 4 5 4 6 6 5 4 2 2 5 8 9 8 8
6 6 6 6 6 6 5 6 7 6 6 6 6 6 5 5 5 6 7 7 7 7 6 5 4 4 5 6 6 4 5 5 4 3 1 2 6 7
Wind_Direction
325 331 335 322 357 128 148 150 145 158 295 284 291 287 252 207 199 178 189 200 199 199 196 197 201 204 204 203 203 201 200 197 194 192 195 201 205 207
306 327 325 310 340 6 132 152 156 162 229 266 260 272 263 213 190 191 211 207 215 206 199 199 200 201 203 204 200 196 194 195 193 193 196 198 202 204
316 309 291 287 317 331 40 85 146 154 198 274 280 301 310 251 208 214 219 211 222 213 204 206 200 195 195 199 194 192 192 194 194 194 194 194 195 196
282 286 284 274 291 297 316 258 217 189 180 236 283 286 262 242 231 221 217 214 216 210 204 202 197 194 194 191 187 186 187 187 189 192 192 190 190 191
260 249 256 234 254 261 241 248 251 214 178 195 243 256 269 256 231 254 210 303 231 201 200 201 197 191 189 185 181 180 181 182 183 184 185 184 183 189
271 253 248 227 223 229 232 242 239 219 191 193 228 242 248 254 177 199 234 279 254 217 199 189 193 192 190 186 182 180 181 179 179 179 179 178 177 180
298 277 261 243 233 222 214 222 210 206 200 209 232 230 229 210 210 201 204 238 283 222 179 214 186 195 205 198 190 182 179 176 175 175 175 176 175 175
310 301 288 269 267 256 246 224 200 196 203 207 224 223 229 219 207 192 185 184 251 227 170 220 176 204 216 200 190 183 181 177 176 175 174 176 176 177
303 311 310 300 277 269 270 260 244 234 212 200 211 226 225 216 196 199 203 198 216 210 158 214 195 215 221 202 191 186 181 177 175 175 175 174 176 177
292 286 293 301 300 286 269 266 261 256 242 227 221 229 227 217 200 200 199 197 232 234 166 192 199 211 210 200 197 190 185 180 175 172 171 170 171 172
313 309 301 291 297 299 283 271 272 271 259 242 237 239 236 224 200 167 167 170 222 232 188 176 184 175 181 219 211 196 188 182 178 174 172 170 169 163
325 323 318 321 317 308 276 263 268 270 267 263 254 254 247 238 213 197 193 190 196 223 204 173 175 156 191 235 195 186 189 195 190 184 178 173 164 149
325 322 317 324 324 316 293 257 259 271 261 248 250 253 249 239 228 214 201 197 202 219 198 171 173 170 176 183 201 191 182 183 184 193 190 179 169 160
304 302 303 315 316 315 302 281 283 282 261 246 243 247 245 241 235 224 217 216 217 216 196 175 177 176 169 174 198 191 181 184 175 180 182 183 182 177
296 302 308 313 315 308 298 294 291 266 253 245 240 243 241 240 237 231 229 223 230 237 211 190 182 176 176 184 182 175 174 192 187 182 180 178 179 167
309 307 311 311 306 297 303 297 277 255 251 251 251 249 244 237 234 222 222 213 220 246 240 208 195 185 188 191 179 182 180 179 183 190 179 181 182 179
307 312 315 315 316 313 307 295 283 273 262 261 262 259 250 244 243 223 216 213 217 224 226 216 197 192 189 178 182 191 182 182 179 172 168 180 202 196
311 305 300 297 295 296 300 300 293 277 267 266 265 253 248 245 246 230 214 216 225 225 217 199 169 148 130 282 208 187 187 187 179 167 160 173 199 206
295 286 281 281 282 284 281 279 283 281 270 263 266 266 256 249 246 234 222 223 227 225 218 199 188 184 198 218 235 204 185 180 166 168 176 175 191 202
269 273 277 275 274 279 280 275 276 283 277 266 265 270 263 255 252 243 227 223 225 225 218 207 204 202 206 206 200 206 193 177 173 179 175 151 117 88
277 273 270 273 272 274 277 272 270 272 275 270 262 266 267 261 257 253 240 227 222 220 219 217 215 202 184 138 146 188 211 202 181 172 162 146 143 146
266 268 269 268 269 269 273 272 270 267 268 266 261 255 259 257 258 260 249 236 227 223 225 218 185 177 180 190 198 192 181 164 164 161 168 168 165 178
262 263 264 266 266 265 266 268 266 265 261 261 262 256 255 258 253 255 256 243 234 226 215 205 192 194 202 197 193 187 174 167 154 135 143 191 172 160